GFSSGP_sfc_dewp_159.txt.gz
Dewpoint
59 48 36 28 31 35 33 33 32 42 49 55 54 56 55 56 55 54 67 69 73 74 75 76 76 76 76 75 75 75 75 75 75 75 75 75 75 75 74 74 74 73 73 73 73 73 73 73 73
57 40 30 29 31 30 31 32 30 32 43 55 54 56 56 51 56 66 67 72 73 74 75 75 76 76 76 75 74 75 75 75 75 75 74 75 75 74 73 74 74 73 73 73 73 73 73 73 72
46 40 28 25 30 29 29 31 32 46 52 56 52 55 56 55 58 64 69 72 74 74 75 75 76 76 76 75 74 75 75 75 75 75 74 74 74 74 74 74 74 73 73 73 73 74 73 72 72
30 26 30 33 27 31 31 31 49 52 53 55 53 56 60 61 64 67 71 73 73 73 74 76 76 76 76 75 74 75 75 75 76 75 74 74 73 74 74 74 74 74 73 73 74 74 72 72 71
28 24 23 30 32 33 32 31 32 32 50 55 56 55 58 64 68 71 72 73 72 72 74 75 76 75 76 75 74 74 75 75 76 75 74 74 74 74 74 74 74 73 73 73 73 73 73 73 72
25 21 15 17 27 28 33 33 31 30 29 56 53 55 58 67 69 70 71 71 72 72 73 74 75 75 75 75 74 74 75 75 76 75 75 74 74 74 74 74 74 74 73 73 73 73 73 72 72
25 18 16 12 8 12 25 27 26 25 30 53 52 51 56 64 67 69 70 72 72 72 72 74 74 74 75 75 74 74 74 75 75 75 75 74 74 74 74 74 74 74 74 74 73 73 72 72 72
25 24 22 14 10 9 8 9 14 18 19 38 56 56 59 63 66 70 72 72 71 71 72 73 74 74 74 74 75 74 74 74 74 74 74 74 73 73 73 73 73 73 73 73 73 73 73 72 72
24 22 21 15 13 15 13 12 14 15 43 58 58 60 62 63 69 69 70 69 69 70 70 73 73 72 73 72 73 74 74 74 74 74 74 73 71 71 71 72 72 73 73 73 72 72 72 72 72
22 17 17 19 15 15 16 12 13 14 57 60 58 61 62 66 67 66 67 67 67 68 69 70 73 71 73 72 72 72 72 72 72 72 71 70 69 69 71 72 72 73 73 73 73 72 72 72 69
25 20 15 17 20 20 18 19 17 15 46 59 52 60 61 65 65 64 65 67 67 68 68 69 70 70 71 71 72 72 71 71 71 70 70 69 69 68 69 69 69 69 71 70 70 69 68 67 67
29 29 23 19 19 19 17 17 15 14 14 58 59 59 61 63 63 63 63 64 67 69 69 69 69 70 70 71 71 71 71 70 69 69 69 68 67 66 66 68 68 67 67 67 67 65 64 64 64
31 32 32 26 19 18 19 18 18 16 18 18 58 58 61 62 62 62 62 62 65 67 69 70 69 69 69 71 70 69 69 69 69 68 68 68 66 65 66 67 67 67 67 66 65 64 63 62 62
30 30 29 29 29 24 18 17 16 17 20 34 57 57 59 60 60 61 61 60 62 63 65 67 67 64 68 67 67 68 67 68 67 66 67 68 66 64 64 65 66 67 66 66 65 64 63 63 63
37 33 29 27 28 26 17 15 16 17 18 23 58 56 58 59 60 61 62 61 61 62 64 64 65 64 66 65 65 65 66 65 65 64 66 67 67 65 63 65 66 66 67 66 65 64 64 64 63
35 28 25 28 28 26 16 13 17 18 17 35 54 57 61 64 62 65 65 66 66 66 66 66 65 64 64 62 63 64 64 64 64 64 65 66 67 67 66 67 68 67 66 66 67 66 63 62 61
34 28 25 26 27 21 17 15 16 18 21 51 57 56 61 63 65 67 66 65 65 65 66 67 69 69 66 64 63 65 67 66 65 66 67 67 68 69 69 69 69 69 69 69 67 65 63 62 62
28 28 25 26 24 22 17 15 16 19 30 55 56 57 60 62 63 66 64 64 65 64 64 64 65 65 66 69 68 68 68 71 70 69 69 69 69 70 69 70 70 69 69 68 67 64 63 62 60
32 34 34 31 25 19 18 18 16 17 30 52 57 57 59 59 63 65 64 65 64 64 62 61 62 64 65 65 68 70 70 70 70 70 71 71 71 71 70 70 70 69 68 67 67 66 64 62 61
33 34 34 34 32 19 17 16 17 17 18 43 53 56 54 59 59 62 64 64 63 63 63 62 63 64 64 67 68 71 70 71 71 70 68 69 69 70 70 69 69 68 67 67 66 65 64 63 62
30 32 33 33 34 24 17 17 17 18 19 21 47 57 56 58 59 58 62 63 63 63 64 61 62 62 66 66 68 70 70 69 69 69 69 70 71 71 69 68 67 66 67 67 66 66 64 63 63
26 29 33 33 33 22 17 13 16 16 17 19 30 48 55 57 60 56 57 60 61 60 62 61 62 61 61 64 65 69 68 67 68 68 67 67 67 67 67 66 65 64 63 63 63 62 64 65 61
26 34 32 32 33 27 17 13 13 17 15 17 26 50 59 59 57 55 52 59 61 60 58 60 62 62 64 65 69 68 67 68 67 66 64 64 63 63 62 62 60 59 60 59 57 55 55 57 56
30 32 32 33 31 21 19 14 13 16 14 18 21 42 60 60 57 54 52 57 60 59 62 63 63 66 68 68 67 67 66 65 64 62 61 59 58 57 57 56 56 55 54 53 53 52 51 52 51
28 36 30 28 25 20 17 13 15 17 19 19 22 36 59 62 62 60 57 55 64 64 66 67 67 65 65 64 63 62 61 61 59 57 55 52 52 52 51 52 51 51 51 49 48 48 48 49 48
33 35 32 26 24 16 17 13 14 20 21 22 24 31 55 61 63 63 64 63 66 67 65 65 63 60 59 58 56 55 54 53 52 50 48 47 46 47 48 49 48 47 47 47 46 46 47 47 48
36 33 36 27 21 14 16 16 20 21 22 23 25 35 51 56 53 56 62 65 65 64 63 60 58 56 55 53 50 49 49 48 47 47 47 47 47 48 48 46 44 44 44 44 44 44 45 46 46
35 39 34 28 14 12 13 14 16 20 20 22 24 36 51 58 61 63 64 62 63 60 58 56 54 53 52 50 49 48 47 47 47 47 47 47 48 49 46 44 43 43 43 44 44 44 45 45 46
35 34 37 26 20 15 14 14 19 19 21 22 40 55 57 59 60 61 61 59 56 55 53 51 51 51 50 48 47 47 47 48 48 47 47 47 47 48 46 44 43 43 42 42 43 44 45 45 45
37 39 32 22 20 22 19 17 46 19 23 42 54 56 57 59 58 56 53 54 52 51 51 51 51 47 46 46 46 47 47 47 47 47 47 47 47 47 44 44 43 43 43 42 42 42 43 44 45

GFSSGP_sfc_dewp_162.txt.gz
Dewpoint
58 53 37 31 30 35 33 33 33 42 51 54 54 55 53 56 56 54 67 71 74 74 74 75 76 75 75 75 75 75 75 75 75 75 75 75 75 74 74 74 74 73 73 72 72 72 72 72 72
56 41 29 31 30 30 31 33 31 32 43 54 54 56 55 52 58 66 68 72 73 73 74 75 76 75 75 75 75 75 74 75 75 75 75 75 75 74 74 74 74 73 73 73 73 73 73 73 72
42 38 22 26 30 28 28 32 33 38 53 55 53 55 57 55 62 66 69 73 74 73 75 75 76 75 75 74 74 74 74 74 74 75 75 74 74 74 74 74 74 73 73 73 73 73 73 72 72
29 25 29 26 26 30 29 31 34 51 53 55 53 55 58 63 64 68 72 73 73 74 74 76 76 75 75 74 74 74 74 74 74 74 74 74 73 74 74 74 74 74 73 73 74 74 72 72 71
27 22 20 29 30 31 32 33 33 36 48 53 57 55 57 66 70 71 72 72 72 73 74 75 76 75 75 74 74 74 75 75 75 74 74 73 73 73 74 74 73 73 73 73 73 73 73 73 72
24 20 13 16 26 31 34 33 31 30 30 51 52 56 56 68 70 71 71 71 71 72 73 74 75 75 75 74 74 74 75 75 75 75 74 74 73 73 73 74 73 73 73 72 72 72 73 72 72
21 19 13 9 7 14 27 34 32 29 27 37 53 50 60 67 70 71 71 72 72 72 72 74 74 74 75 74 74 74 74 75 75 75 75 74 73 73 73 74 73 73 73 73 73 73 72 72 72
26 21 20 14 9 4 14 24 25 29 27 30 54 47 53 65 69 71 71 72 72 71 71 73 74 73 73 74 74 74 74 75 75 75 74 73 73 73 73 72 73 72 72 72 73 73 73 72 72
26 21 20 13 10 9 13 8 13 15 18 52 54 59 63 68 70 70 70 70 70 70 71 72 73 73 73 72 73 74 73 74 74 74 74 72 71 71 71 71 71 72 72 72 72 72 72 72 72
20 18 17 19 14 11 16 14 18 23 31 59 56 62 66 69 69 68 67 68 68 68 70 71 72 71 72 72 72 72 72 72 72 72 72 71 70 70 71 71 72 72 72 73 73 72 72 71 69
26 19 16 18 20 20 18 18 19 16 18 59 56 60 65 67 67 67 66 67 66 67 68 70 71 71 71 71 72 71 71 71 71 71 71 70 69 69 70 69 69 69 69 70 69 68 67 67 66
31 27 23 20 19 19 19 19 18 16 15 22 48 61 65 65 65 65 65 66 66 67 67 68 69 69 71 71 71 71 71 70 70 70 70 69 68 67 67 68 68 68 68 68 68 67 66 65 64
29 31 32 31 31 24 19 18 18 18 20 21 20 61 62 64 64 64 65 67 67 67 68 68 69 70 71 70 70 70 70 70 69 69 69 69 67 66 66 66 67 68 68 67 67 66 66 65 64
30 33 32 28 30 29 21 20 19 20 20 20 29 57 61 63 63 62 62 65 67 68 67 67 69 70 71 70 69 69 69 69 69 68 68 68 67 66 65 65 66 67 68 67 67 66 66 65 65
37 33 31 29 28 28 23 17 18 21 19 19 24 58 60 61 62 62 62 62 65 67 68 68 69 68 69 69 69 68 68 68 67 67 67 67 67 66 65 64 64 67 68 68 67 66 66 66 65
35 31 25 27 28 28 20 13 14 18 18 19 20 55 59 62 62 63 62 63 63 64 66 67 67 65 65 65 65 66 66 66 66 66 66 66 67 67 66 65 66 68 68 67 67 68 66 65 64
32 28 26 25 28 27 21 17 16 17 17 19 21 45 59 61 64 63 64 64 64 65 66 67 66 65 65 66 64 65 66 65 66 66 66 66 67 67 67 67 69 70 70 70 69 67 65 65 64
27 29 32 26 25 28 21 20 18 19 17 20 35 55 61 62 64 65 64 65 65 65 66 67 67 66 67 68 69 67 67 68 69 67 67 67 67 68 68 69 70 71 70 69 68 67 66 64 62
33 31 32 34 35 24 25 22 18 19 20 42 56 60 61 63 65 64 64 64 65 65 65 65 65 65 66 66 67 69 69 70 71 71 71 71 71 71 70 71 70 70 68 68 68 67 66 64 63
32 32 31 33 34 33 27 20 21 18 18 53 57 60 60 62 63 63 64 64 64 64 64 64 64 65 65 67 67 70 70 71 71 70 70 71 71 70 70 69 68 67 67 67 67 67 66 65 65
29 31 31 33 35 34 27 17 18 19 19 44 58 59 60 62 62 63 63 63 64 64 64 62 63 65 66 66 66 68 69 69 69 69 68 68 69 69 68 68 67 66 66 64 64 65 65 64 65
27 29 29 31 32 30 28 15 16 17 17 40 55 57 59 61 63 63 63 63 63 62 61 61 61 62 63 65 65 67 67 64 67 66 66 65 65 65 64 63 62 62 60 58 59 59 60 63 58
26 27 29 30 32 32 28 14 15 17 17 24 54 56 58 59 59 62 63 63 60 61 61 61 60 62 63 65 67 68 68 67 66 65 62 60 59 60 58 57 56 55 55 55 54 54 54 55 55
28 28 30 32 34 31 29 16 15 15 15 19 52 55 57 58 58 58 58 60 59 60 60 61 62 65 67 67 68 68 67 64 62 60 57 56 55 54 55 54 54 53 52 52 52 52 52 52 52
26 29 22 25 29 27 25 17 15 18 18 20 40 55 55 56 57 56 57 59 58 60 61 62 64 63 62 62 62 62 62 60 57 54 52 50 51 52 52 51 50 49 50 48 49 49 49 49 50
27 29 23 18 24 22 19 16 15 19 20 22 41 58 57 57 56 56 54 59 59 64 65 63 61 58 57 56 55 54 53 51 49 49 47 47 48 49 50 48 47 47 48 47 48 47 48 48 47
33 28 34 31 29 15 16 16 20 22 21 23 40 58 60 61 58 59 62 63 63 64 62 60 57 55 53 52 50 49 49 48 48 49 49 49 49 46 47 46 45 46 47 47 47 46 47 47 47
33 33 27 33 20 14 14 15 16 20 20 24 39 56 56 57 60 63 64 63 62 59 57 55 53 52 51 49 48 47 49 49 49 49 49 49 47 46 45 45 45 45 45 46 46 46 47 47 46
34 32 35 35 25 15 14 15 21 19 20 25 38 54 56 60 62 63 62 59 56 55 53 51 50 48 47 47 48 48 48 48 48 48 48 48 47 46 45 45 45 44 44 44 44 46 46 46 47
35 33 32 31 21 20 19 17 41 22 27 42 50 56 59 60 60 59 57 55 53 52 51 49 48 46 46 47 47 47 47 47 47 47 47 47 46 45 45 45 45 44 44 44 44 44 44 45 45

GFSSGP_sfc_dewp_165.txt.gz
Dewpoint
57 49 38 30 31 34 30 31 33 39 47 52 53 53 52 54 53 53 68 69 71 72 73 73 76 76 76 76 76 76 76 76 76 76 76 76 76 75 73 74 74 73 73 72 72 71 71 72 72
50 37 30 31 28 27 26 33 32 39 43 47 53 53 51 49 59 66 68 71 72 72 72 71 75 75 75 75 75 75 75 76 75 75 75 75 75 74 73 74 74 73 73 73 73 73 73 73 72
40 36 19 24 24 21 23 32 32 33 47 48 49 53 53 53 63 65 69 72 72 72 71 73 75 75 75 75 75 75 75 75 75 75 74 74 74 74 74 75 74 73 73 73 73 73 73 72 71
33 30 31 22 18 22 25 29 33 33 48 54 51 48 58 64 63 66 71 71 71 71 70 75 75 75 75 74 75 75 75 75 75 74 74 74 73 73 74 74 74 73 74 74 74 73 72 71 71
27 23 10 18 17 28 30 31 40 40 42 50 54 49 54 67 69 70 71 71 71 71 70 72 75 75 75 74 74 74 75 75 75 74 73 73 73 73 73 73 73 73 73 73 73 73 71 71 71
22 19 9 4 15 25 31 31 34 32 30 40 47 49 53 69 69 70 71 71 71 71 72 72 75 75 74 74 75 75 75 75 75 74 74 73 73 73 73 73 73 73 72 72 72 72 71 71 71
17 16 5 4 2 19 25 31 33 32 31 28 45 41 58 66 70 71 70 71 71 72 72 71 70 73 75 75 75 75 75 75 75 75 74 74 73 73 73 73 73 73 73 72 72 72 72 72 72
24 19 11 8 4 3 12 21 26 31 31 31 41 28 43 65 70 70 69 69 70 71 71 70 70 68 69 70 74 75 75 75 75 75 74 74 73 72 72 72 72 72 72 72 72 72 73 72 72
26 17 11 8 7 4 11 19 16 19 24 28 35 42 60 68 70 70 69 68 68 69 71 70 68 69 69 68 71 74 74 75 75 73 73 71 66 67 67 69 69 71 71 71 72 72 72 72 72
22 19 16 16 12 9 12 14 15 17 23 23 36 63 66 69 69 68 68 67 67 68 70 70 70 69 69 67 71 69 68 68 69 69 70 68 68 69 67 69 71 71 71 72 73 73 72 70 63
26 20 17 18 17 19 17 17 18 17 24 29 53 58 66 68 68 68 66 66 66 68 70 70 71 71 69 68 70 68 68 68 69 70 71 71 68 69 67 67 65 67 68 66 67 68 66 66 66
30 28 19 16 19 18 17 19 18 18 18 26 26 55 66 67 66 67 66 66 66 68 70 71 70 71 71 69 69 69 68 68 67 67 71 70 68 68 67 64 65 68 68 69 69 67 69 68 68
31 31 30 26 28 26 24 18 18 18 19 20 21 41 64 66 66 67 66 66 67 67 69 70 70 70 72 71 69 69 69 68 68 68 69 68 67 68 67 66 65 68 68 68 69 69 68 68 67
31 32 31 31 26 28 25 20 19 17 21 21 23 24 48 63 66 66 66 66 67 67 68 69 70 71 71 71 71 70 70 70 70 69 68 69 68 68 66 66 64 65 67 67 69 69 69 67 68
34 30 28 29 30 26 26 19 19 22 23 23 23 24 52 61 64 65 66 67 67 68 70 70 70 71 71 72 71 70 69 69 69 69 71 69 69 69 69 65 64 64 66 69 70 69 69 69 68
28 30 22 23 28 28 26 16 15 15 17 17 18 21 47 63 64 64 65 67 68 69 69 69 68 69 70 71 71 69 69 70 69 69 69 69 68 69 69 66 66 67 69 70 70 70 69 68 67
30 20 21 18 28 26 25 19 19 20 21 20 20 22 36 60 63 64 64 66 68 69 70 69 71 70 71 71 69 70 70 69 68 68 66 67 66 66 68 68 69 71 71 71 71 70 69 68 67
23 23 27 23 21 29 25 22 20 20 19 21 23 24 30 56 62 64 64 65 67 68 69 70 69 70 70 69 68 66 66 67 67 70 72 72 71 69 71 71 71 72 71 72 72 71 69 68 66
28 28 28 29 33 31 27 28 24 23 22 23 28 28 47 56 62 64 65 65 66 67 68 69 69 70 69 69 68 69 68 70 72 72 71 70 70 71 71 71 71 70 70 70 69 68 68 66 66
28 25 24 28 29 33 29 28 28 28 24 23 23 42 55 61 63 64 64 64 65 67 67 68 69 70 70 70 71 72 72 71 70 71 69 68 67 68 69 69 69 68 69 69 68 68 66 66 66
27 25 24 25 29 30 32 28 26 25 27 24 36 49 59 62 62 63 63 64 64 65 66 67 68 69 70 70 70 70 70 71 68 66 67 67 67 66 67 67 67 67 67 65 64 65 66 64 62
21 27 27 26 26 23 32 16 24 24 24 26 30 59 60 62 62 63 63 64 65 64 65 66 68 69 69 70 69 69 68 66 68 68 67 66 64 63 63 63 63 62 60 59 57 57 58 60 54
21 27 26 25 27 29 28 26 19 24 22 24 32 57 61 62 62 62 63 64 65 64 64 64 67 67 68 68 70 69 68 67 67 66 63 61 60 59 57 57 56 56 53 55 55 55 55 52 51
26 25 27 29 27 24 24 25 15 18 21 23 37 54 60 62 62 63 64 64 64 63 62 63 65 66 68 69 71 69 68 66 64 61 59 57 56 53 54 53 53 53 52 52 52 53 54 54 52
26 28 20 20 25 17 22 27 23 22 21 21 39 52 59 61 62 63 63 62 63 63 63 64 65 66 67 67 69 68 65 64 63 59 54 52 50 50 51 51 51 49 51 51 52 53 52 51 49
24 31 24 16 15 11 26 23 23 24 23 23 41 53 59 60 61 61 62 62 60 60 63 63 64 62 62 63 64 64 63 59 56 55 51 50 49 48 50 49 50 50 51 51 52 49 48 51 49
24 27 29 29 28 15 18 23 24 23 24 26 45 56 58 59 58 59 61 60 62 63 63 62 61 59 61 59 59 58 56 55 53 54 54 50 49 47 49 49 50 50 50 51 51 48 49 50 50
30 25 27 30 22 12 13 20 17 23 23 31 46 56 58 58 57 60 61 61 62 62 61 60 60 58 56 55 54 53 53 53 54 54 52 51 50 48 47 47 48 48 48 49 49 48 50 50 48
29 28 28 29 31 15 12 16 24 25 26 36 50 56 58 58 58 61 61 60 59 58 56 56 55 53 52 52 52 52 52 52 52 51 50 50 50 48 47 47 47 47 48 48 49 49 48 49 50
29 29 30 23 24 27 22 17 33 28 27 39 49 58 59 59 60 60 58 58 56 54 54 53 53 51 51 51 51 50 51 51 51 50 49 49 49 48 47 47 47 47 48 49 48 47 48 48 49

GFSSGP_sfc_dewp_168.txt.gz
Dewpoint
54 38 32 28 28 29 26 24 28 28 33 46 48 49 47 53 50 53 66 67 68 70 70 71 76 77 77 77 76 76 75 75 75 76 76 76 76 75 74 74 73 73 73 72 72 72 71 72 71
39 30 24 27 23 24 25 25 27 27 37 39 43 50 48 46 57 64 65 68 69 70 69 67 76 76 76 76 76 76 76 76 76 76 76 75 75 74 73 73 73 73 72 72 72 72 72 72 72
36 30 12 18 18 19 23 25 27 26 39 38 37 47 46 51 59 63 67 69 70 69 66 69 76 76 76 76 76 76 76 76 76 75 75 74 73 73 74 74 74 73 73 73 73 73 72 71 71
25 21 18 10 4 14 22 25 28 26 36 41 41 42 54 62 61 64 69 69 69 66 65 74 75 76 76 76 76 76 76 76 75 75 74 73 73 73 74 74 73 73 73 73 73 73 71 71 70
24 14 9 6 2 3 15 22 27 27 27 34 45 43 52 63 66 68 70 69 67 65 65 69 75 75 75 75 75 75 75 75 75 75 74 73 73 73 74 74 73 74 73 73 73 72 71 71 71
19 14 9 5 5 0 14 22 26 28 27 35 46 48 53 65 67 68 69 69 67 66 67 68 74 75 75 75 75 75 75 75 75 75 74 73 73 73 73 73 73 73 72 72 72 71 71 71 71
22 14 8 6 4 6 9 18 19 25 28 28 34 37 57 63 67 69 69 69 68 67 66 67 68 72 75 75 74 74 75 75 75 74 74 73 72 72 72 72 72 72 72 71 71 72 72 72 72
25 16 11 6 3 3 10 13 20 24 26 29 32 28 34 62 68 68 68 68 67 67 66 65 66 63 64 67 75 75 75 75 75 74 74 73 72 72 72 72 72 71 71 71 71 71 71 72 72
26 19 13 9 6 5 5 13 15 21 26 29 29 30 54 67 68 67 66 66 67 66 66 64 62 63 61 61 70 74 74 74 75 73 73 70 62 64 65 68 68 70 70 70 71 71 72 72 72
24 20 16 13 10 7 5 5 5 5 13 21 28 45 60 67 69 65 64 64 65 65 66 64 63 64 63 61 67 65 68 67 67 66 68 62 64 65 63 67 69 70 71 72 72 72 72 71 62
29 22 21 18 14 10 7 7 9 9 6 10 18 29 59 64 67 66 64 63 64 65 66 65 67 68 65 63 62 62 62 64 66 68 68 67 64 64 62 61 61 63 69 64 67 67 65 65 66
30 28 23 20 16 16 13 12 11 14 11 19 36 46 61 62 64 65 64 63 63 65 67 67 68 69 67 66 64 64 63 63 63 64 69 67 64 66 65 60 60 66 66 68 67 64 67 68 67
29 29 28 21 17 19 17 15 16 13 15 24 23 39 62 64 63 64 65 64 65 66 67 68 69 70 69 70 66 66 66 64 64 66 67 64 64 66 64 64 61 62 66 66 66 67 68 68 66
24 25 28 27 23 22 19 17 14 16 18 18 21 24 44 62 64 66 66 66 67 68 69 69 69 72 70 69 70 69 68 68 67 66 67 68 65 67 64 63 60 60 63 65 67 69 70 69 69
25 28 27 28 28 24 23 19 17 16 16 20 22 23 32 45 62 65 67 68 68 69 71 70 70 71 72 71 70 69 68 66 67 67 70 68 68 68 68 64 65 64 67 68 70 71 70 70 69
24 25 20 22 24 26 25 20 19 18 18 20 19 19 25 54 58 65 67 69 69 69 70 72 68 70 72 72 70 68 68 68 67 66 66 67 67 68 70 69 68 69 70 74 73 74 70 71 68
23 15 17 16 21 23 25 22 23 21 18 19 19 19 21 46 61 65 68 68 70 70 71 70 70 71 72 73 71 70 72 66 65 65 66 69 67 67 70 69 70 71 70 72 71 70 70 69 69
15 15 16 13 14 20 21 22 23 21 21 22 21 20 21 39 58 65 67 68 69 70 70 70 70 71 72 71 70 66 64 63 68 72 72 73 72 72 72 70 70 70 68 67 67 68 69 69 68
24 23 20 18 22 21 20 21 23 24 21 21 20 23 25 31 54 62 66 67 69 70 70 70 70 72 70 67 61 62 62 68 70 70 72 70 70 71 72 67 68 69 69 69 69 69 69 67 70
24 22 21 22 23 27 23 21 25 27 25 24 22 24 27 35 49 61 65 65 67 69 69 70 70 71 69 66 67 69 70 70 69 69 69 69 67 70 68 70 68 68 67 68 68 68 68 66 66
23 22 20 19 19 28 28 26 24 25 28 27 26 25 30 41 53 61 64 64 65 66 68 68 70 70 69 72 72 71 70 69 68 67 66 68 68 69 69 68 68 67 68 65 64 63 63 59 57
18 20 21 21 19 14 23 13 22 24 25 27 27 28 36 44 55 60 63 64 65 65 66 68 69 70 70 71 71 72 68 66 66 65 66 65 66 66 65 65 64 62 60 61 58 57 57 56 50
19 19 20 21 19 20 23 23 18 21 24 25 26 26 43 48 53 59 62 64 65 66 66 67 69 70 71 71 70 68 68 65 66 66 65 63 62 60 59 59 59 58 54 57 57 56 57 50 49
24 20 21 24 20 16 20 21 14 17 22 25 23 25 50 52 55 60 63 64 65 64 66 67 69 70 71 71 71 70 69 67 64 63 60 57 55 55 56 55 55 56 55 55 54 55 56 55 53
24 21 17 16 18 15 15 18 21 19 21 24 22 24 50 54 57 61 63 64 64 64 64 65 67 68 69 69 69 69 69 67 66 63 59 58 54 52 55 55 55 52 55 54 54 55 54 53 52
23 26 21 16 14 10 18 15 18 24 23 25 21 26 50 56 57 61 63 64 63 64 64 65 66 67 68 69 69 68 67 61 60 61 57 54 52 51 54 53 53 53 53 53 53 50 50 54 52
22 24 23 26 21 11 9 21 20 22 26 25 21 31 52 57 61 63 63 63 64 64 65 64 65 66 67 67 66 66 64 63 60 60 58 53 54 50 52 52 53 52 52 53 53 50 52 53 53
23 21 25 24 15 9 7 12 14 21 25 25 23 38 55 62 62 63 63 63 63 63 64 64 66 66 66 65 63 61 61 59 58 57 56 55 53 52 51 51 51 50 50 51 52 51 53 54 52
25 26 21 20 14 11 7 9 19 22 27 27 25 44 59 61 61 62 61 62 61 61 62 64 64 63 62 60 59 59 57 57 57 54 53 53 53 51 49 49 49 49 50 51 52 52 52 52 53
25 25 23 24 18 20 23 16 13 25 25 27 32 51 59 60 60 61 61 60 59 60 61 61 61 59 58 57 57 57 56 54 54 53 52 52 51 50 49 48 48 49 50 52 51 50 51 52 52

GFSSGP_sfc_dewp_171.txt.gz
Dewpoint
56 40 32 30 23 28 25 22 24 27 28 34 43 46 44 51 51 58 63 65 67 69 71 73 77 77 77 76 75 75 75 76 76 76 76 76 76 75 74 74 73 73 72 72 71 71 71 71 70
46 29 24 23 17 20 24 23 21 27 31 42 42 47 48 48 54 61 63 65 68 69 71 70 77 77 77 76 75 75 76 76 76 76 76 75 75 74 74 73 73 73 72 72 72 71 72 72 72
47 25 12 13 14 15 21 23 21 26 30 37 36 42 45 54 57 60 65 67 69 68 67 73 77 77 77 76 76 76 76 76 76 76 75 75 74 73 74 73 73 72 72 73 72 72 72 71 70
32 19 17 8 7 10 18 23 22 23 27 35 36 39 50 60 60 63 66 67 68 65 64 75 76 76 77 76 76 76 76 76 76 75 75 74 73 73 74 74 73 73 73 73 73 72 71 70 70
32 15 11 9 6 4 6 16 24 25 25 33 38 40 53 60 63 66 67 67 67 63 65 71 76 76 76 76 76 76 76 76 75 75 74 73 73 74 74 74 74 74 74 73 73 72 71 71 71
27 19 10 7 5 4 2 6 19 25 24 25 36 40 54 61 64 66 66 67 63 62 66 70 75 76 76 76 76 76 75 75 75 75 74 73 73 74 74 74 74 73 72 72 71 71 71 71 71
27 17 12 9 6 5 3 1 11 23 27 23 33 40 54 59 63 66 67 67 63 63 63 66 68 73 75 75 75 75 75 75 75 75 74 74 73 73 72 72 72 72 71 70 70 71 72 72 72
29 23 16 12 8 5 4 1 8 17 22 27 31 31 49 56 63 65 65 65 64 64 63 62 65 65 67 70 75 75 75 75 74 74 74 74 73 72 72 72 72 71 70 70 70 70 71 72 72
28 23 20 16 13 9 4 3 6 12 15 27 28 30 58 61 63 64 64 64 64 63 63 61 60 60 59 62 71 74 74 74 74 73 73 71 63 65 66 69 70 69 69 70 70 71 72 72 72
26 22 20 18 15 13 7 3 7 11 15 22 29 38 62 63 64 63 63 63 63 63 62 60 60 61 58 58 66 64 66 65 66 66 67 63 63 64 63 67 68 69 70 71 72 72 72 72 65
26 24 19 18 17 15 10 6 4 8 12 19 27 34 57 63 63 63 62 62 63 63 61 60 65 65 60 60 60 61 63 64 65 67 67 65 62 62 58 62 63 65 70 62 67 66 66 65 64
21 24 24 20 19 17 13 10 6 6 8 4 13 24 51 60 60 62 62 62 62 62 61 62 64 68 67 62 60 61 58 61 62 64 67 68 63 65 64 58 59 62 62 65 65 62 65 66 65
17 20 24 25 22 20 16 14 11 8 12 17 26 39 46 56 59 60 61 62 63 64 63 63 67 69 71 70 63 62 62 61 63 65 66 63 60 64 61 62 59 59 61 64 65 65 65 65 65
17 15 21 26 25 21 17 17 15 14 14 20 24 26 50 57 59 61 62 63 65 67 67 66 67 72 68 70 72 67 66 65 64 65 66 66 62 66 60 61 58 59 63 65 67 71 70 69 67
18 18 20 21 26 24 21 20 19 18 16 15 20 25 28 55 58 61 62 65 66 69 70 70 70 70 72 70 70 69 67 65 65 65 69 66 67 67 66 62 61 65 69 70 71 70 70 68 67
21 17 16 20 21 26 24 22 22 21 16 16 18 24 27 42 56 61 64 68 70 71 72 71 68 70 72 73 71 68 66 65 65 64 66 66 66 68 71 68 69 70 71 71 70 69 69 68 68
22 16 15 15 19 22 26 24 24 23 19 19 20 22 24 43 53 63 68 69 71 72 72 72 71 71 72 74 70 70 72 66 63 62 63 66 67 68 70 69 70 72 69 68 67 66 67 65 67
16 13 12 13 12 17 19 23 25 25 20 20 20 21 22 30 56 63 69 70 70 72 73 72 71 72 74 71 73 67 68 62 62 65 67 70 69 70 72 71 72 70 66 65 67 69 67 67 67
26 20 15 13 12 15 17 20 24 25 23 19 19 22 24 30 56 65 69 70 70 71 72 71 70 72 72 70 68 65 60 61 66 72 72 72 72 72 73 69 68 68 66 68 69 68 68 65 66
22 20 20 20 17 16 16 16 21 24 25 22 21 23 25 30 52 64 67 69 70 70 70 70 70 73 73 69 68 63 62 67 68 70 71 70 70 71 69 70 69 69 67 69 68 67 63 62 62
22 22 21 19 19 21 23 22 20 20 24 25 23 23 25 29 47 60 66 67 68 68 69 69 72 73 72 70 72 74 72 71 69 69 69 68 68 69 69 69 68 69 67 64 63 62 61 54 54
18 19 18 20 19 15 20 18 24 21 24 27 25 25 24 29 45 62 65 65 66 66 67 69 71 72 70 74 73 73 69 68 75 68 66 66 67 66 66 66 64 64 60 61 58 57 57 57 50
17 18 17 17 18 18 14 12 12 23 22 27 28 26 26 30 45 61 67 67 65 65 66 68 70 70 72 73 74 71 73 73 67 66 66 65 64 62 60 60 60 60 56 59 59 58 59 52 50
21 20 19 19 18 15 16 18 12 18 22 25 28 26 27 30 48 59 64 65 64 65 65 67 69 71 70 70 71 73 72 69 66 65 62 60 58 57 58 57 58 58 57 57 56 57 58 57 55
22 22 15 15 15 13 14 16 19 20 21 23 26 25 27 37 49 58 62 62 64 65 66 67 69 69 70 72 70 70 71 69 67 65 60 60 57 56 58 57 56 54 56 56 56 57 56 56 55
20 21 20 21 12 7 13 11 14 22 22 20 25 25 28 42 49 57 63 63 63 65 66 66 68 69 69 69 70 69 68 64 62 63 60 57 55 54 57 55 55 55 54 55 56 52 52 57 55
22 20 19 27 20 14 7 15 16 19 22 19 24 25 33 47 54 60 64 65 63 64 65 66 68 68 69 69 68 67 65 64 63 63 61 56 57 52 54 54 54 54 54 54 54 53 55 56 56
21 25 18 21 15 10 5 12 12 18 22 24 24 26 38 51 57 63 64 67 64 64 67 67 66 67 67 66 65 64 64 63 61 60 58 57 55 53 52 52 52 52 52 53 54 54 56 56 54
19 19 20 18 13 8 6 6 16 20 23 27 26 24 40 55 61 62 63 63 62 64 63 64 66 66 65 64 63 63 61 60 59 57 55 54 54 52 50 50 50 51 52 54 55 55 54 54 55
23 20 22 19 18 15 13 13 15 16 20 28 27 23 43 59 59 62 64 63 61 61 62 64 63 62 62 62 61 60 59 57 56 55 54 53 52 51 50 49 50 51 52 54 53 53 53 53 53

GFSSGP_sfc_dewp_174.txt.gz
Dewpoint
56 40 32 31 24 23 25 24 23 24 28 49 52 54 48 55 57 59 68 67 69 70 74 74 78 78 77 76 76 75 75 76 75 75 75 76 76 75 75 75 74 73 72 72 71 71 71 70 70
51 38 26 22 19 17 21 25 22 22 25 38 43 46 45 54 59 64 65 67 69 71 72 74 77 77 76 76 75 75 76 76 76 76 76 76 75 75 74 74 74 73 72 72 71 71 72 72 72
50 45 24 14 15 12 15 21 23 21 28 37 36 41 43 55 59 57 64 69 70 70 70 75 76 76 76 75 75 75 76 76 76 76 76 75 75 74 74 74 74 72 72 72 72 72 72 71 70
35 30 20 9 6 9 9 15 21 20 22 34 34 38 56 59 60 64 66 68 68 67 72 76 76 76 76 76 76 76 76 76 76 76 75 74 74 74 75 74 74 73 73 73 72 71 70 70 72
39 25 15 11 7 5 5 6 13 19 21 30 34 37 55 60 63 64 66 67 65 65 72 74 76 76 76 76 76 76 76 76 76 75 74 74 74 75 75 75 74 74 74 73 72 72 71 72 73
33 30 15 10 7 6 5 4 5 10 20 25 33 37 57 64 63 65 66 67 63 69 70 74 76 76 76 76 76 76 75 75 75 75 74 74 75 75 75 75 75 74 73 72 71 71 72 72 72
34 27 20 13 10 8 6 5 3 2 18 24 27 34 58 61 64 65 67 66 63 67 69 72 73 75 76 76 76 75 75 75 75 74 74 74 74 74 74 74 74 73 72 71 70 72 72 73 73
28 29 22 16 13 11 8 4 2 0 8 26 25 31 54 60 64 65 64 62 63 64 65 67 71 71 72 73 76 75 75 75 75 74 74 74 74 74 73 73 73 72 71 71 71 72 72 72 72
27 25 24 20 14 12 11 7 3 1 3 23 26 51 55 62 63 63 63 61 62 61 62 62 63 67 68 71 73 75 74 74 74 73 74 73 67 69 69 69 72 72 71 71 72 72 72 72 72
24 23 23 22 20 16 13 11 6 2 6 14 19 56 58 59 61 61 62 62 62 61 60 60 60 63 63 65 70 69 69 69 69 68 70 68 68 68 64 69 72 71 72 72 72 72 72 72 68
19 21 21 19 18 19 16 13 12 4 6 11 15 54 56 58 61 61 61 62 62 62 60 60 63 64 60 62 65 65 66 66 69 70 70 69 68 68 65 66 64 68 70 68 69 69 69 68 67
16 18 20 20 20 18 17 17 16 11 8 10 14 51 55 56 60 60 60 62 62 62 61 62 63 66 65 62 63 65 64 66 68 70 72 74 71 70 70 67 67 69 69 68 70 67 69 69 67
14 15 17 19 20 21 20 20 18 12 6 7 11 22 55 59 58 60 62 66 66 63 62 62 64 69 66 65 65 64 65 65 67 70 70 71 70 71 69 70 67 66 66 68 69 70 72 71 69
16 14 13 14 18 22 21 21 18 15 15 9 22 23 47 57 57 61 64 67 64 64 63 65 65 72 66 65 71 72 69 70 68 70 69 71 71 72 70 69 68 68 67 70 70 74 73 72 71
18 14 14 16 15 21 24 21 18 17 18 15 21 25 31 52 56 59 64 65 67 67 67 68 69 72 72 75 72 72 72 69 71 71 72 71 71 72 72 69 69 70 73 73 74 73 73 71 70
22 20 13 12 16 17 23 22 20 19 20 18 15 22 23 47 57 59 62 68 70 69 69 69 67 70 73 74 74 72 71 71 72 71 72 70 69 71 72 73 72 73 74 73 72 71 69 69 69
23 19 18 12 11 14 19 23 23 21 23 24 23 19 23 32 55 60 69 69 70 71 70 72 70 71 72 74 73 74 73 74 71 70 70 70 68 70 74 73 74 74 73 71 70 69 69 68 69
19 24 20 14 12 12 15 18 23 22 24 25 25 21 26 29 45 68 70 71 72 71 72 73 72 73 73 72 73 74 73 72 69 69 71 70 71 71 74 74 73 72 70 69 69 70 70 70 68
27 32 29 25 21 13 14 17 21 26 25 25 23 24 28 30 54 69 70 71 71 72 72 72 73 73 73 71 70 70 70 69 70 73 74 73 73 74 73 74 71 70 70 70 70 69 69 68 63
27 27 30 23 20 23 18 15 18 24 27 27 24 25 27 30 56 67 69 70 70 71 72 72 73 73 74 72 73 70 68 70 72 72 70 71 71 72 70 71 70 70 70 68 66 66 63 64 61
18 19 19 18 26 29 27 15 18 18 26 26 26 25 27 29 63 67 68 69 70 70 70 71 72 72 74 73 72 74 72 71 70 71 69 70 70 70 69 68 68 69 65 62 63 62 61 59 58
15 20 19 18 24 25 23 17 20 20 24 27 27 27 25 28 63 65 68 69 69 69 69 71 72 73 72 73 71 72 69 68 71 68 67 67 68 67 66 65 64 64 60 62 61 60 61 59 54
16 19 21 19 16 17 19 15 15 20 21 25 29 28 27 28 42 65 68 68 69 68 68 70 72 72 72 73 73 72 72 70 66 65 66 65 64 63 61 62 62 61 61 62 61 60 60 57 57
20 18 19 18 15 13 14 18 12 19 22 24 28 28 27 27 41 63 66 67 67 66 67 69 71 71 72 73 74 74 71 68 67 65 63 61 60 60 61 60 60 61 61 60 60 60 60 59 58
19 18 16 14 14 13 16 13 17 18 25 24 28 29 28 29 47 65 65 65 67 66 67 67 68 70 72 72 72 72 70 70 68 66 62 61 59 58 60 60 60 59 60 60 60 60 60 59 58
22 18 19 21 18 14 12 11 15 23 25 25 28 31 29 29 63 63 63 64 66 67 67 67 67 69 71 71 71 70 69 67 66 65 63 60 58 58 60 59 59 59 59 59 60 59 58 60 58
22 25 25 26 24 21 19 13 15 18 23 25 27 32 31 30 63 60 59 66 62 66 66 66 68 69 70 69 69 68 67 66 63 62 61 58 59 56 58 58 58 58 58 59 59 59 59 59 60
23 33 25 20 19 18 12 10 9 16 20 24 26 31 33 33 61 63 62 65 67 68 66 68 70 69 69 68 66 65 65 63 62 61 59 58 57 56 56 56 57 57 58 59 60 58 60 59 58
21 22 22 21 19 15 12 10 22 23 23 26 26 31 31 32 57 64 65 67 67 67 68 69 69 67 66 65 65 64 62 61 60 58 57 57 58 57 54 55 55 56 57 58 59 59 58 58 58
22 23 19 22 17 14 15 18 21 26 21 28 24 31 29 34 59 65 66 67 67 67 67 67 66 64 64 64 62 61 60 59 58 56 56 56 56 55 54 54 54 54 55 58 57 56 56 56 55